Regional Weather Roundup
Issued by NWS Jackson, KY

Home | Current Version | Previous Version | Graphics & Text | Print | Product List | Glossary On
Versions: 1 2 3 4 5 6 7 8 9 10 11 12 13 14 15 16 17 18 19 20 21 22 23 24 25 26 27 28 29 30 31 32 33 34 35 36 37 38 39 40 41 42 43 44 45 46 47 48 49 50
936
ASUS43 KJKL 220610
RWRJKL

EAST KENTUCKY HOURLY WEATHER ROUNDUP
NATIONAL WEATHER SERVICE JACKSON KY
100 AM EST THU FEB 22 2018

NOTE: "FAIR" INDICATES FEW OR NO CLOUDS BELOW 12,000 FEET WITH
NO SIGNIFICANT WEATHER AND/OR OBSTRUCTIONS TO VISIBILITY.

* THESE REPORTS ARE NOT UNDER NWS QUALITY CONTROL AND MAY NOT
  REPORT WEATHER SUCH AS PRECIPITATION AND FOG.

KYZ079-080-083-085-087-088-110-112-115-119-120-220700
...EASTERN KENTUCKY...

CITY           SKY/WX    TMP DP  RH WIND       PRES   REMARKS
JACKSON        CLOUDY    52  50  93 VRB5      30.34F FOG
6HR MIN TEMP:  52; 6HR MAX TEMP:  60; 6HR PCP: TRACE;

LONDON         CLOUDY    57  55  93 NE6       30.31F
6HR MIN TEMP:  57; 6HR MAX TEMP:  61;

SOMERSET*      CLOUDY    52  52 100 E6        30.32F
WILLIAMSBURG*  CLOUDY    57  57 100 CALM      30.31F
MIDDLESBORO*     N/A     62  59  91 S6        30.31F
6HR MIN TEMP:  59; 6HR MAX TEMP:  69;

HARLAN APT*    CLOUDY    57  55  94 CALM      30.33S VSB 3/4
PIKE CO APT*   CLOUDY    54  54 100 CALM      30.36F FOG
BIG SANDY APT* CLOUDY    52  52 100 N5        30.37F FOG
6HR MIN TEMP:  52; 6HR MAX TEMP:  59;

MOREHEAD APT*  HVY RAIN  48  46  93 NE7G14    30.37F
ASHLAND*       LGT RAIN  46  45  96 VRB7      30.42F
$$

KYZ035-036-041-042-044-050-067-078-099-220700
...CENTRAL KENTUCKY...

CITY           SKY/WX    TMP DP  RH WIND       PRES   REMARKS
MT STERLING*   RAIN      46  46 100 CALM      30.38S
FLEMING/MASON* RAIN      45  45 100 NE10      30.40F
DANVILLE*      RAIN      46  46 100 NE8       30.33F
LEXINGTON      RAIN      47  44  90 NE15      30.36F FOG
6HR MIN TEMP:  47; 6HR MAX TEMP:  50; 6HR PCP:  0.02;

FRANKFORT      HVY RAIN  47  43  86 N9        30.37R FOG
6HR MIN TEMP:  47; 6HR MAX TEMP:  49; 6HR PCP:  0.16;

LOUISVILLE     LGT RAIN  46  43  89 N9        30.38F
6HR MIN TEMP:  45; 6HR MAX TEMP:  48; 6HR PCP:  0.33;

LEBANON*       RAIN      48  48 100 N7        30.34F
GLASGOW*       HVY RAIN N/A N/A N/A E18       30.29S
BOWLING GREEN  LGT RAIN  50  49  96 N5        30.30F
6HR MIN TEMP:  48; 6HR MAX TEMP:  50; 6HR PCP:  0.42;

$$

KYZ091>093-OHZ055-061-077-WVZ005-015-034-035-042-220700
...SOUTHERN OHIO/WEST VIRGINIA...

CITY           SKY/WX    TMP DP  RH WIND       PRES   REMARKS
COVINGTON      LGT RAIN  43  43 100 NE17      30.42F
COLUMBUS       LGT RAIN  38  36  92 N10       30.51R WCI  31
DAYTON         LGT RAIN  36  36 100 NE14      30.50F WCI  27
WILMINGTON     LGT RAIN  38  38 100 NE18G25   30.43F WCI  28
HUNTINGTON     CLOUDY    48  44  86 NE9       30.39F
CHARLESTON     DRIZZLE   51  50  96 NE8       30.39F
BECKLEY        FOG       57  57 100 E3        30.39S VSB 1/4
BLUEFIELD        N/A     61  53  75 VRB3      30.40F
LOGAN CO APT*  CLOUDY    57  57 100 NE3       30.36F
$$

VAZ002-007-008-TNZ017-027-036-066-071-220700
...SOUTHWEST VIRGINIA/EAST TENNESSEE...

CITY           SKY/WX    TMP DP  RH WIND       PRES   REMARKS
WISE*            N/A     63  55  77 S5        30.39F
ABINGDON*        N/A     60  56  86 CALM      30.37F
BRISTOL        CLOUDY    61  57  87 CALM      30.34F
MORRISTOWN*    PTCLDY    63  57  82 CALM      30.32F
SEVIERVILLE*   CLEAR     59  55  88 CALM      30.30F
KNOXVILLE      MOCLDY    68  59  73 S8        30.29F
LAFOLLETTE*    CLOUDY    70  61  73 S10G16    30.33F
OAK RIDGE        N/A     64  62  93 CALM      30.31F
CROSSVILLE       N/A     67  60  78 S10G21    30.31F
NASHVILLE      CLOUDY    51  49  92 CALM      30.27F
$$

...KEY TO REMARKS...
VSB - VISIBILITY IN MILES
WCI - WIND CHILL INDEX
HX  - HEAT INDEX

$$




USA.gov is the U.S. government's official web portal to all federal, state and local government web resources and services.